Time,TemperatureF,DewpointF,PressureIn,WindDirection,WindDirectionDegrees,WindSpeedMPH,WindSpeedGustMPH,Humidity,HourlyPrecipIn,Conditions,Clouds,dailyrainin,SoftwareType,DateUTC
2013-01-13 00:02:00,-3.0,-7.0,-100.00,West,265,2.0,6.0,80,-99.99,,,-99.99,,2013-01-13 07:02:00,
2013-01-13 00:12:00,-3.0,-7.0,-100.00,WSW,253,4.0,12.0,80,-99.99,,,-99.99,,2013-01-13 07:12:00,
2013-01-13 00:22:00,-3.0,-7.0,-100.00,WSW,253,4.0,12.0,80,-99.99,,,-99.99,,2013-01-13 07:22:00,
2013-01-13 00:32:00,-3.0,-7.0,-100.00,WSW,253,4.0,12.0,80,-99.99,,,-99.99,,2013-01-13 07:32:00,
2013-01-13 00:42:00,-2.0,-7.0,-100.00,WSW,256,5.0,12.0,80,-99.99,,,-99.99,,2013-01-13 07:42:00,
2013-01-13 00:52:00,-2.0,-7.0,-100.00,WSW,256,5.0,12.0,80,-99.99,,,-99.99,,2013-01-13 07:52:00,
2013-01-13 01:02:00,-2.0,-7.0,-100.00,West,263,4.0,10.0,79,-99.99,,,-99.99,,2013-01-13 08:02:00,
2013-01-13 01:11:00,-2.0,-7.0,-100.00,West,266,3.0,11.0,80,-99.99,,,-99.99,,2013-01-13 08:11:00,
2013-01-13 01:22:00,-2.0,-7.0,-100.00,West,266,3.0,11.0,80,-99.99,,,-99.99,,2013-01-13 08:22:00,
2013-01-13 01:32:00,-2.0,-7.0,-100.00,West,266,3.0,11.0,80,-99.99,,,-99.99,,2013-01-13 08:32:00,
2013-01-13 01:42:00,-2.0,-6.0,-100.00,WNW,290,2.0,5.0,80,-99.99,,,-99.99,,2013-01-13 08:42:00,
2013-01-13 01:52:00,-2.0,-7.0,-100.00,WNW,289,2.0,6.0,80,-99.99,,,-99.99,,2013-01-13 08:52:00,
2013-01-13 02:02:00,-2.0,-7.0,-100.00,WNW,289,2.0,6.0,80,-99.99,,,-99.99,,2013-01-13 09:02:00,
2013-01-13 02:12:00,-2.0,-7.0,-100.00,WSW,257,3.0,5.0,80,-99.99,,,-99.99,,2013-01-13 09:12:00,
2013-01-13 02:22:00,-2.0,-7.0,-100.00,WSW,257,3.0,5.0,80,-99.99,,,-99.99,,2013-01-13 09:22:00,
2013-01-13 02:32:00,-2.0,-7.0,-100.00,WSW,257,3.0,5.0,80,-99.99,,,-99.99,,2013-01-13 09:32:00,
2013-01-13 02:42:00,-2.0,-7.0,-100.00,West,260,1.0,3.0,80,-99.99,,,-99.99,,2013-01-13 09:42:00,
2013-01-13 02:52:00,-2.0,-7.0,-100.00,West,260,1.0,3.0,80,-99.99,,,-99.99,,2013-01-13 09:52:00,
2013-01-13 03:02:00,-3.0,-7.0,-100.00,West,266,1.0,3.0,80,-99.99,,,-99.99,,2013-01-13 10:02:00,
2013-01-13 03:11:00,-3.0,-8.0,-100.00,South,170,1.0,2.0,80,-99.99,,,-99.99,,2013-01-13 10:11:00,
2013-01-13 03:22:00,-3.0,-8.0,-100.00,South,170,1.0,2.0,80,-99.99,,,-99.99,,2013-01-13 10:22:00,
2013-01-13 03:32:00,-3.0,-8.0,-100.00,South,170,1.0,2.0,80,-99.99,,,-99.99,,2013-01-13 10:32:00,
2013-01-13 03:42:00,-4.0,-8.0,-100.00,North,0,0.0,0.0,80,-99.99,,,-99.99,,2013-01-13 10:42:00,
2013-01-13 03:52:00,-4.0,-8.0,-100.00,North,0,0.0,0.0,80,-99.99,,,-99.99,,2013-01-13 10:52:00,
2013-01-13 04:02:00,-4.0,-8.0,-100.00,East,79,0.0,1.0,80,-99.99,,,-99.99,,2013-01-13 11:02:00,
2013-01-13 04:12:00,-4.0,-8.0,-100.00,WNW,290,1.0,3.0,80,-99.99,,,-99.99,,2013-01-13 11:12:00,
2013-01-13 04:22:00,-4.0,-8.0,-100.00,WNW,290,1.0,3.0,80,-99.99,,,-99.99,,2013-01-13 11:22:00,
2013-01-13 04:32:00,-4.0,-8.0,-100.00,WNW,290,1.0,3.0,80,-99.99,,,-99.99,,2013-01-13 11:32:00,
2013-01-13 04:42:00,-4.0,-8.0,-100.00,West,269,2.0,3.0,80,-99.99,,,-99.99,,2013-01-13 11:42:00,
2013-01-13 04:52:00,-4.0,-8.0,-100.00,West,269,2.0,3.0,80,-99.99,,,-99.99,,2013-01-13 11:52:00,
2013-01-13 05:02:00,-4.0,-9.0,-100.00,West,270,2.0,3.0,80,-99.99,,,-99.99,,2013-01-13 12:02:00,
2013-01-13 05:12:00,-4.0,-9.0,-100.00,West,277,1.0,2.0,80,-99.99,,,-99.99,,2013-01-13 12:12:00,
2013-01-13 05:22:00,-4.0,-9.0,-100.00,West,277,1.0,2.0,80,-99.99,,,-99.99,,2013-01-13 12:22:00,
2013-01-13 05:32:00,-4.0,-9.0,-100.00,West,277,1.0,2.0,80,-99.99,,,-99.99,,2013-01-13 12:32:00,
2013-01-13 05:42:00,-4.0,-9.0,-100.00,West,277,0.0,2.0,80,-99.99,,,-99.99,,2013-01-13 12:42:00,
2013-01-13 05:53:00,-4.0,-9.0,-100.00,West,277,0.0,2.0,80,-99.99,,,-99.99,,2013-01-13 12:53:00,
2013-01-13 06:02:00,-5.0,-9.0,-100.00,NW,305,1.0,2.0,80,-99.99,,,-99.99,,2013-01-13 13:02:00,
2013-01-13 06:12:00,-5.0,-9.0,-100.00,WNW,295,2.0,3.0,80,-99.99,,,-99.99,,2013-01-13 13:12:00,
2013-01-13 06:22:00,-5.0,-9.0,-100.00,WNW,295,2.0,3.0,80,-99.99,,,-99.99,,2013-01-13 13:22:00,
2013-01-13 06:32:00,-5.0,-9.0,-100.00,WNW,295,2.0,3.0,80,-99.99,,,-99.99,,2013-01-13 13:32:00,
2013-01-13 06:42:00,-5.0,-9.0,-100.00,West,268,3.0,6.0,80,-99.99,,,-99.99,,2013-01-13 13:42:00,
2013-01-13 06:53:00,-5.0,-9.0,-100.00,West,268,3.0,6.0,80,-99.99,,,-99.99,,2013-01-13 13:53:00,
2013-01-13 07:02:00,-4.0,-9.0,-100.00,West,269,2.0,5.0,79,-99.99,,,-99.99,,2013-01-13 14:02:00,
2013-01-13 07:12:00,-5.0,-9.0,-100.00,WNW,300,0.0,2.0,79,-99.99,,,-99.99,,2013-01-13 14:12:00,
2013-01-13 07:22:00,-5.0,-9.0,-100.00,WNW,300,0.0,2.0,79,-99.99,,,-99.99,,2013-01-13 14:22:00,
2013-01-13 07:32:00,-5.0,-9.0,-100.00,WNW,300,0.0,2.0,79,-99.99,,,-99.99,,2013-01-13 14:32:00,
2013-01-13 07:42:00,-5.0,-9.0,-100.00,SSE,161,0.0,2.0,79,-99.99,,,-99.99,,2013-01-13 14:42:00,
2013-01-13 07:53:00,-5.0,-9.0,-100.00,SSE,161,0.0,2.0,79,-99.99,,,-99.99,,2013-01-13 14:53:00,
2013-01-13 08:03:00,-5.0,-10.0,-100.00,North,0,0.0,0.0,79,-99.99,,,-99.99,,2013-01-13 15:03:00,
2013-01-13 08:12:00,-5.0,-10.0,-100.00,ESE,103,1.0,2.0,79,-99.99,,,-99.99,,2013-01-13 15:12:00,
2013-01-13 08:22:00,-5.0,-10.0,-100.00,ESE,103,1.0,2.0,79,-99.99,,,-99.99,,2013-01-13 15:22:00,
2013-01-13 08:33:00,-5.0,-10.0,-100.00,ESE,103,1.0,2.0,79,-99.99,,,-99.99,,2013-01-13 15:33:00,
2013-01-13 08:42:00,-5.0,-9.0,-100.00,South,180,1.0,2.0,80,-99.99,,,-99.99,,2013-01-13 15:42:00,
2013-01-13 08:53:00,-5.0,-9.0,-100.00,South,180,1.0,2.0,80,-99.99,,,-99.99,,2013-01-13 15:53:00,
2013-01-13 09:03:00,-5.0,-9.0,-100.00,SSE,161,0.0,1.0,79,-99.99,,,-99.99,,2013-01-13 16:03:00,
2013-01-13 09:12:00,-4.0,-9.0,-100.00,WNW,286,0.0,2.0,80,-99.99,,,-99.99,,2013-01-13 16:12:00,
2013-01-13 09:22:00,-4.0,-9.0,-100.00,WNW,286,0.0,2.0,80,-99.99,,,-99.99,,2013-01-13 16:22:00,
2013-01-13 09:33:00,-4.0,-9.0,-100.00,WNW,286,0.0,2.0,80,-99.99,,,-99.99,,2013-01-13 16:33:00,
2013-01-13 09:42:00,-3.0,-7.0,-100.00,NW,326,0.0,2.0,80,-99.99,,,-99.99,,2013-01-13 16:42:00,
2013-01-13 09:53:00,-3.0,-7.0,-100.00,NW,326,0.0,2.0,80,-99.99,,,-99.99,,2013-01-13 16:53:00,
2013-01-13 10:03:00,-2.0,-7.0,-100.00,NNW,335,1.0,3.0,80,-99.99,,,-99.99,,2013-01-13 17:03:00,
2013-01-13 10:12:00,-1.0,-6.0,-100.00,NW,325,2.0,4.0,80,-99.99,,,-99.99,,2013-01-13 17:12:00,
2013-01-13 10:22:00,-1.0,-6.0,-100.00,NW,325,2.0,4.0,80,-99.99,,,-99.99,,2013-01-13 17:22:00,
2013-01-13 10:32:00,-1.0,-6.0,-100.00,NW,325,2.0,4.0,80,-99.99,,,-99.99,,2013-01-13 17:32:00,
2013-01-13 10:42:00,0.0,-5.0,-100.00,NW,326,2.0,5.0,79,-99.99,,,-99.99,,2013-01-13 17:42:00,
2013-01-13 10:53:00,0.0,-5.0,-100.00,NW,326,2.0,5.0,79,-99.99,,,-99.99,,2013-01-13 17:53:00,
2013-01-13 11:02:00,0.0,-5.0,-100.00,NNW,330,3.0,5.0,79,-99.99,,,-99.99,,2013-01-13 18:02:00,
2013-01-13 11:12:00,0.0,-4.0,-100.00,NNW,338,2.0,4.0,79,-99.99,,,-99.99,,2013-01-13 18:12:00,
2013-01-13 11:22:00,0.0,-4.0,-100.00,NNW,338,2.0,4.0,79,-99.99,,,-99.99,,2013-01-13 18:22:00,
2013-01-13 11:32:00,0.0,-4.0,-100.00,NNW,338,2.0,4.0,79,-99.99,,,-99.99,,2013-01-13 18:32:00,
2013-01-13 11:42:00,2.0,-3.0,-100.00,NNW,328,2.0,5.0,79,-99.99,,,-99.99,,2013-01-13 18:42:00,
2013-01-13 11:53:00,2.0,-3.0,-100.00,NNW,328,2.0,5.0,79,-99.99,,,-99.99,,2013-01-13 18:53:00,
2013-01-13 12:02:00,3.0,-2.0,-100.00,North,352,3.0,5.0,78,-99.99,,,-99.99,,2013-01-13 19:02:00,
2013-01-13 12:12:00,3.0,-3.0,-100.00,North,356,3.0,6.0,76,-99.99,,,-99.99,,2013-01-13 19:12:00,
2013-01-13 12:22:00,3.0,-3.0,-100.00,North,356,3.0,6.0,76,-99.99,,,-99.99,,2013-01-13 19:22:00,
2013-01-13 12:32:00,3.0,-3.0,-100.00,North,356,3.0,6.0,76,-99.99,,,-99.99,,2013-01-13 19:32:00,
2013-01-13 12:42:00,1.0,-4.0,-100.00,NNW,348,3.0,6.0,78,-99.99,,,-99.99,,2013-01-13 19:42:00,
2013-01-13 12:53:00,1.0,-4.0,-100.00,NNW,348,3.0,6.0,78,-99.99,,,-99.99,,2013-01-13 19:53:00,
2013-01-13 13:02:00,0.0,-5.0,-100.00,North,4,4.0,7.0,77,-99.99,,,-99.99,,2013-01-13 20:02:00,
2013-01-13 13:12:00,0.0,-5.0,-100.00,North,352,3.0,7.0,78,-99.99,,,-99.99,,2013-01-13 20:12:00,
2013-01-13 13:22:00,0.0,-5.0,-100.00,North,352,3.0,7.0,78,-99.99,,,-99.99,,2013-01-13 20:22:00,
2013-01-13 13:32:00,0.0,-5.0,-100.00,North,352,3.0,7.0,78,-99.99,,,-99.99,,2013-01-13 20:32:00,
2013-01-13 13:43:00,0.0,-5.0,-100.00,North,3,3.0,6.0,79,-99.99,,,-99.99,,2013-01-13 20:43:00,
2013-01-13 13:53:00,0.0,-5.0,-100.00,North,3,3.0,6.0,79,-99.99,,,-99.99,,2013-01-13 20:53:00,
2013-01-13 14:03:00,-1.0,-6.0,-100.00,North,358,4.0,6.0,79,-99.99,,,-99.99,,2013-01-13 21:03:00,
2013-01-13 14:12:00,-1.0,-6.0,-100.00,North,7,3.0,5.0,79,-99.99,,,-99.99,,2013-01-13 21:12:00,
2013-01-13 14:22:00,-1.0,-6.0,-100.00,North,7,3.0,5.0,79,-99.99,,,-99.99,,2013-01-13 21:22:00,
2013-01-13 14:32:00,-1.0,-6.0,-100.00,North,7,3.0,5.0,79,-99.99,,,-99.99,,2013-01-13 21:32:00,
2013-01-13 14:42:00,-1.0,-5.0,-100.00,North,349,3.0,6.0,80,-99.99,,,-99.99,,2013-01-13 21:42:00,
2013-01-13 14:53:00,-1.0,-5.0,-100.00,North,349,3.0,6.0,80,-99.99,,,-99.99,,2013-01-13 21:53:00,
2013-01-13 15:02:00,0.0,-4.0,-100.00,NNW,328,2.0,5.0,81,-99.99,,,-99.99,,2013-01-13 22:02:00,
2013-01-13 15:12:00,1.0,-4.0,-100.00,NNW,332,3.0,6.0,80,-99.99,,,-99.99,,2013-01-13 22:12:00,
2013-01-13 15:22:00,1.0,-4.0,-100.00,NNW,332,3.0,6.0,80,-99.99,,,-99.99,,2013-01-13 22:22:00,
2013-01-13 15:33:00,1.0,-4.0,-100.00,NNW,332,3.0,6.0,80,-99.99,,,-99.99,,2013-01-13 22:33:00,
2013-01-13 15:42:00,1.0,-4.0,-100.00,NNW,332,3.0,6.0,80,-99.99,,,-99.99,,2013-01-13 22:42:00,
2013-01-13 16:02:00,1.0,-3.0,-100.00,NW,314,3.0,6.0,80,-99.99,,,-99.99,,2013-01-13 23:02:00,
2013-01-13 16:12:00,1.0,-3.0,-100.00,NW,315,3.0,5.0,80,-99.99,,,-99.99,,2013-01-13 23:12:00,
2013-01-13 16:22:00,1.0,-3.0,-100.00,NW,315,3.0,5.0,80,-99.99,,,-99.99,,2013-01-13 23:22:00,
2013-01-13 16:32:00,1.0,-3.0,-100.00,NW,315,3.0,5.0,80,-99.99,,,-99.99,,2013-01-13 23:32:00,
2013-01-13 16:42:00,1.0,-4.0,-100.00,WNW,303,1.0,3.0,80,-99.99,,,-99.99,,2013-01-13 23:42:00,
2013-01-13 16:53:00,1.0,-4.0,-100.00,WNW,303,1.0,3.0,80,-99.99,,,-99.99,,2013-01-13 23:53:00,
2013-01-13 17:02:00,1.0,-4.0,-100.00,WNW,302,2.0,4.0,80,-99.99,,,-99.99,,2013-01-14 00:02:00,
2013-01-13 17:12:00,0.0,-4.0,-100.00,NW,314,1.0,4.0,80,-99.99,,,-99.99,,2013-01-14 00:12:00,
2013-01-13 17:22:00,0.0,-4.0,-100.00,NW,314,1.0,4.0,80,-99.99,,,-99.99,,2013-01-14 00:22:00,
2013-01-13 17:32:00,0.0,-4.0,-100.00,NW,314,1.0,4.0,80,-99.99,,,-99.99,,2013-01-14 00:32:00,
2013-01-13 17:42:00,-1.0,-5.0,-100.00,East,100,0.0,2.0,79,-99.99,,,-99.99,,2013-01-14 00:42:00,
2013-01-13 17:53:00,-1.0,-5.0,-100.00,East,100,0.0,2.0,79,-99.99,,,-99.99,,2013-01-14 00:53:00,
2013-01-13 18:02:00,-2.0,-7.0,-100.00,SE,133,2.0,3.0,78,-99.99,,,-99.99,,2013-01-14 01:02:00,
2013-01-13 18:12:00,-3.0,-8.0,-100.00,SE,143,2.0,4.0,80,-99.99,,,-99.99,,2013-01-14 01:12:00,
2013-01-13 18:22:00,-3.0,-8.0,-100.00,SE,143,2.0,4.0,80,-99.99,,,-99.99,,2013-01-14 01:22:00,
2013-01-13 18:32:00,-3.0,-8.0,-100.00,SE,143,2.0,4.0,80,-99.99,,,-99.99,,2013-01-14 01:32:00,
2013-01-13 18:42:00,-4.0,-8.0,-100.00,South,182,1.0,3.0,81,-99.99,,,-99.99,,2013-01-14 01:42:00,
2013-01-13 18:52:00,-4.0,-8.0,-100.00,South,182,1.0,3.0,81,-99.99,,,-99.99,,2013-01-14 01:52:00,
2013-01-13 19:02:00,-4.0,-8.0,-100.00,SW,218,3.0,5.0,80,-99.99,,,-99.99,,2013-01-14 02:02:00,
2013-01-13 19:12:00,-4.0,-8.0,-100.00,SW,225,4.0,5.0,79,-99.99,,,-99.99,,2013-01-14 02:12:00,
2013-01-13 19:22:00,-4.0,-8.0,-100.00,SW,225,4.0,5.0,79,-99.99,,,-99.99,,2013-01-14 02:22:00,
2013-01-13 19:32:00,-4.0,-8.0,-100.00,SW,225,4.0,5.0,79,-99.99,,,-99.99,,2013-01-14 02:32:00,
2013-01-13 19:42:00,-3.0,-8.0,-100.00,WSW,254,2.0,4.0,79,-99.99,,,-99.99,,2013-01-14 02:42:00,
2013-01-13 19:53:00,-3.0,-8.0,-100.00,WSW,254,2.0,4.0,79,-99.99,,,-99.99,,2013-01-14 02:53:00,
2013-01-13 20:02:00,-3.0,-8.0,-100.00,WSW,256,3.0,5.0,79,-99.99,,,-99.99,,2013-01-14 03:02:00,
2013-01-13 20:12:00,-3.0,-8.0,-100.00,WSW,243,3.0,4.0,78,-99.99,,,-99.99,,2013-01-14 03:12:00,
2013-01-13 20:22:00,-3.0,-8.0,-100.00,WSW,243,3.0,4.0,78,-99.99,,,-99.99,,2013-01-14 03:22:00,
2013-01-13 20:32:00,-3.0,-8.0,-100.00,WSW,243,3.0,4.0,78,-99.99,,,-99.99,,2013-01-14 03:32:00,
2013-01-13 20:42:00,-4.0,-8.0,-100.00,West,276,1.0,3.0,79,-99.99,,,-99.99,,2013-01-14 03:42:00,
2013-01-13 20:53:00,-4.0,-8.0,-100.00,West,276,1.0,3.0,79,-99.99,,,-99.99,,2013-01-14 03:53:00,
2013-01-13 21:02:00,-4.0,-8.0,-100.00,NNW,342,0.0,2.0,79,-99.99,,,-99.99,,2013-01-14 04:02:00,
2013-01-13 21:12:00,-4.0,-9.0,-100.00,NW,323,1.0,3.0,79,-99.99,,,-99.99,,2013-01-14 04:12:00,
2013-01-13 21:22:00,-4.0,-9.0,-100.00,NW,323,1.0,3.0,79,-99.99,,,-99.99,,2013-01-14 04:22:00,
2013-01-13 21:32:00,-4.0,-9.0,-100.00,NW,323,1.0,3.0,79,-99.99,,,-99.99,,2013-01-14 04:32:00,
2013-01-13 21:42:00,-4.0,-9.0,-100.00,WNW,283,2.0,4.0,79,-99.99,,,-99.99,,2013-01-14 04:42:00,
2013-01-13 21:53:00,-4.0,-9.0,-100.00,WNW,283,2.0,4.0,79,-99.99,,,-99.99,,2013-01-14 04:53:00,
2013-01-13 22:03:00,-4.0,-9.0,-100.00,WNW,293,3.0,5.0,79,-99.99,,,-99.99,,2013-01-14 05:03:00,
2013-01-13 22:12:00,-4.0,-9.0,-100.00,West,277,4.0,7.0,78,-99.99,,,-99.99,,2013-01-14 05:12:00,
2013-01-13 22:22:00,-4.0,-9.0,-100.00,West,277,4.0,7.0,78,-99.99,,,-99.99,,2013-01-14 05:22:00,
2013-01-13 22:32:00,-4.0,-9.0,-100.00,West,277,4.0,7.0,78,-99.99,,,-99.99,,2013-01-14 05:32:00,
2013-01-13 22:42:00,-4.0,-9.0,-100.00,NW,316,1.0,2.0,79,-99.99,,,-99.99,,2013-01-14 05:42:00,
2013-01-13 22:53:00,-4.0,-9.0,-100.00,NW,316,1.0,2.0,79,-99.99,,,-99.99,,2013-01-14 05:53:00,
2013-01-13 23:02:00,-5.0,-9.0,-100.00,North,0,0.0,0.0,79,-99.99,,,-99.99,,2013-01-14 06:02:00,
2013-01-13 23:12:00,-5.0,-10.0,-100.00,North,0,0.0,0.0,79,-99.99,,,-99.99,,2013-01-14 06:12:00,
2013-01-13 23:22:00,-5.0,-10.0,-100.00,North,0,0.0,0.0,79,-99.99,,,-99.99,,2013-01-14 06:22:00,
2013-01-13 23:32:00,-5.0,-10.0,-100.00,North,0,0.0,0.0,79,-99.99,,,-99.99,,2013-01-14 06:32:00,
2013-01-13 23:42:00,-5.0,-10.0,-100.00,WSW,245,1.0,2.0,80,-99.99,,,-99.99,,2013-01-14 06:42:00,
2013-01-13 23:52:00,-5.0,-10.0,-100.00,WSW,245,1.0,2.0,80,-99.99,,,-99.99,,2013-01-14 06:52:00,